This demonstration page uses our WeatherBlox Daily Observations layout. Learn more.

Left ArrowRight Arrow

40.92945, -100.16068

Hourly Observations for February 6, 2022

Temp ( °F °C ) Dew Point ( °F °C ) Humidity (%) Winds ( mph kmh ) Pressure ( in mb ) Visibility ( mi km ) Precip ( " mm )
12:15 am 00:15 Clear 27 -3 14 -10.1 58 58 W 7 11 30.16 1021 10 16 0.00 0.00
12:35 am 00:35 Clear 25 -3.8 14 -10.1 62 62 WNW 10 17 30.18 1022 10 16 0.00 0.00
12:55 am 00:55 Clear 26 -3.5 14 -9.8 62 62 WNW 8 13 30.18 1022 10 16 0.00 0.00
1:15 am 01:15 Clear 25 -4.1 14 -9.9 64 64 WNW 10 17 30.19 1022 10 16 0.00 0.00
1:35 am 01:35 Clear 26 -3.1 15 -9.2 63 63 WNW 12 19 30.18 1022 10 16 0.00 0.00
1:55 am 01:55 Clear 28 -2.4 16 -8.7 62 62 WNW 13 20 30.18 1022 10 16 0.00 0.00
2:15 am 02:15 Clear 27 -2.7 16 -8.9 63 63 NW 9 15 30.18 1022 10 16 0.00 0.00
2:35 am 02:35 Clear 25 -3.9 16 -9 68 68 WNW 12 19 30.21 1023 10 16 0.00 0.00
2:55 am 02:55 Clear 25 -3.7 16 -9.1 67 67 WNW 10 17 30.21 1023 10 16 0.00 0.00
3:15 am 03:15 Clear 26 -3.2 17 -8.6 67 67 WNW 10 17 30.23 1024 10 16 0.00 0.00
3:35 am 03:35 Clear 26 -3.1 16 -8.7 66 66 WNW 12 19 30.24 1024 10 16 0.00 0.00
3:55 am 03:55 Clear 26 -3.2 17 -8.5 67 67 WNW 13 20 30.24 1024 10 16 0.00 0.00
4:15 am 04:15 Partly Cloudy 27 -3 17 -8.3 67 67 WNW 12 19 30.24 1024 10 16 0.00 0.00
4:35 am 04:35 Partly Cloudy 27 -2.8 18 -7.7 69 69 WNW 12 19 30.24 1024 10 16 0.00 0.00
4:55 am 04:55 Mostly Cloudy 28 -2.5 19 -7 72 72 WNW 10 17 30.24 1024 10 16 0.00 0.00
5:15 am 05:15 Partly Cloudy 28 -2.5 20 -6.8 73 73 NW 10 17 30.25 1024 10 16 0.00 0.00
5:35 am 05:35 Mostly Cloudy 36 2.2 27 -2.9 69 69 NNW 15 24 30.21 1023 10 16 0.00 0.00
5:55 am 05:55 Cloudy 38 3.2 26 -3.1 64 64 NNW 14 22 30.21 1023 10 16 0.00 0.00
6:15 am 06:15 Cloudy 38 3.1 26 -3.1 64 64 NNW 18 30 30.23 1024 10 16 0.00 0.00
6:35 am 06:35 Mostly Cloudy 35 1.8 26 -3.6 68 68 NNW 13 20 30.25 1024 10 16 0.00 0.00
6:55 am 06:55 Partly Cloudy 33 0.7 25 -3.7 73 73 NW 9 15 30.27 1025 10 16 0.00 0.00
7:15 am 07:15 Clear 29 -1.6 23 -5 78 78 WNW 8 13 30.30 1026 10 16 0.00 0.00
7:35 am 07:35 Clear 28 -2 23 -5 80 80 WNW 10 17 30.32 1027 10 16 0.00 0.00
7:55 am 07:55 Sunny 28 -2.2 23 -5.1 81 81 WNW 12 19 30.33 1027 10 16 0.00 0.00
8:15 am 08:15 Sunny 29 -1.9 24 -4.7 81 81 WNW 9 15 30.34 1027 10 16 0.00 0.00
8:35 am 08:35 Mostly Cloudy 32 0.2 26 -3.3 78 78 WNW 12 19 30.34 1027 10 16 0.00 0.00
8:55 am 08:55 Cloudy 35 1.4 27 -3 73 73 NW 12 19 30.32 1027 10 16 0.00 0.00
9:15 am 09:15 Cloudy 35 1.9 27 -3 70 70 NW 13 20 30.34 1027 10 16 0.00 0.00
9:35 am 09:35 Cloudy 38 3.1 25 -3.7 61 61 N 22 35 30.34 1027 10 16 0.00 0.00
9:55 am 09:55 Cloudy 38 3.3 25 -4 59 59 N 20 31 30.35 1028 10 16 0.00 0.00
10:15 am 10:15 Cloudy 39 3.8 24 -4.5 55 55 N 23 37 30.35 1028 10 16 0.00 0.00
10:35 am 10:35 Mostly Cloudy 37 3 23 -4.9 57 57 N 21 33 30.37 1028 10 16 0.00 0.00
10:55 am 10:55 Partly Cloudy 39 4 22 -5.4 51 51 N 24 39 30.37 1028 10 16 0.00 0.00
11:15 am 11:15 Sunny 40 4.3 22 -5.7 49 49 N 28 44 30.37 1028 10 16 0.00 0.00
11:35 am 11:35 Sunny 40 4.7 22 -5.5 48 48 N 24 39 30.37 1028 10 16 0.00 0.00
11:55 am 11:55 Partly Cloudy 41 4.8 22 -5.5 48 48 N 24 39 30.37 1028 10 16 0.00 0.00
12:15 pm 12:15 Partly Cloudy 41 5.1 22 -5.6 46 46 N 24 39 30.36 1028 10 16 0.00 0.00
12:35 pm 12:35 Sunny 42 5.5 22 -5.5 45 45 N 16 26 30.34 1028 10 16 0.00 0.00
12:55 pm 12:55 Sunny 43 5.9 22 -5.5 44 44 N 18 30 30.33 1027 10 16 0.00 0.00
1:15 pm 13:15 Sunny 43 6.2 22 -5.8 42 42 NNW 15 24 30.32 1027 10 16 0.00 0.00
1:35 pm 13:35 Sunny 44 6.7 22 -5.7 41 41 NNW 16 26 30.31 1026 10 16 0.00 0.00
1:55 pm 13:55 Sunny 45 7.2 21 -6 39 39 NNW 17 28 30.30 1026 10 16 0.00 0.00
2:15 pm 14:15 Sunny 46 7.5 20 -6.5 37 37 N 24 39 30.28 1026 10 16 0.00 0.00
2:35 pm 14:35 Sunny 46 7.9 20 -6.5 36 36 NNW 16 26 30.28 1025 10 16 0.00 0.00
2:55 pm 14:55 Sunny 46 7.6 20 -6.6 36 36 N 17 28 30.28 1026 10 16 0.00 0.00
3:15 pm 15:15 Partly Cloudy 46 7.7 20 -6.7 36 36 N 16 26 30.28 1025 10 16 0.00 0.00
3:35 pm 15:35 Partly Cloudy 46 7.5 19 -7.1 35 35 NNW 16 26 30.29 1026 10 16 0.00 0.00
3:55 pm 15:55 Partly Cloudy 45 7 19 -7.4 35 35 NNW 15 24 30.30 1026 10 16 0.00 0.00
4:15 pm 16:15 Mostly Cloudy 46 7.7 19 -7.4 34 34 NNW 17 28 30.29 1026 10 16 0.00 0.00
4:35 pm 16:35 Partly Cloudy 46 7.8 17 -8.3 31 31 NNW 18 30 30.28 1025 10 16 0.00 0.00
4:55 pm 16:55 Sunny 45 7.3 17 -8.1 33 33 NNW 14 22 30.29 1026 10 16 0.00 0.00
5:15 pm 17:15 Sunny 43 6 16 -8.7 34 34 NNW 13 20 30.30 1026 10 16 0.00 0.00
5:35 pm 17:35 Mostly Cloudy 41 5.2 17 -8.3 37 37 NW 7 11 30.31 1026 10 16 0.00 0.00
5:55 pm 17:55 Cloudy 40 4.2 17 -8.5 39 39 NNW 6 9 30.32 1027 10 16 0.00 0.00
6:15 pm 18:15 Mostly Cloudy 39 3.7 17 -8.6 41 41 NNW 6 9 30.32 1027 10 16 0.00 0.00
6:35 pm 18:35 Partly Cloudy 36 2.3 16 -8.9 44 44 NNW 5 7 30.33 1027 10 16 0.00 0.00
6:55 pm 18:55 Clear 32 0.2 15 -9.7 48 48 NW 5 7 30.37 1028 10 16 0.00 0.00
7:15 pm 19:15 Clear 27 -3 12 -11.1 54 54 WNW 3 6 30.41 1030 10 16 0.00 0.00
7:35 pm 19:35 Partly Cloudy 25 -3.7 12 -11.2 56 56 W 9 15 30.43 1030 10 16 0.00 0.00
7:55 pm 19:55 Cloudy 29 -1.5 14 -9.8 54 54 SW 3 6 30.40 1030 10 16 0.00 0.00
8:15 pm 20:15 Cloudy 30 -1.3 15 -9.7 53 53 S 5 7 30.39 1029 10 16 0.00 0.00
8:35 pm 20:35 Cloudy 31 -0.3 16 -9.1 52 52 S 3 6 30.38 1029 10 16 0.00 0.00
8:55 pm 20:55 Cloudy 32 0 16 -8.9 52 52 Calm 30.38 1029 10 16 0.00 0.00
9:15 pm 21:15 Cloudy 30 -1.1 15 -9.6 53 53 Calm 30.40 1029 10 16 0.00 0.00
9:35 pm 21:35 Cloudy 30 -1.3 14 -10 52 52 Calm 30.41 1030 10 16 0.00 0.00
9:55 pm 21:55 Cloudy 29 -1.5 14 -9.8 54 54 Calm 30.41 1030 10 16 0.00 0.00
10:15 pm 22:15 Mostly Cloudy 28 -2 14 -9.9 55 55 Calm 30.42 1030 10 16 0.00 0.00
10:35 pm 22:35 Mostly Cloudy 29 -1.8 15 -9.6 56 56 SSW 5 7 30.41 1030 10 16 0.00 0.00
10:55 pm 22:55 Mostly Cloudy 26 -3.4 13 -10.5 58 58 SW 5 7 30.42 1030 10 16 0.00 0.00
11:15 pm 23:15 Mostly Cloudy 26 -3.5 13 -10.5 59 59 SW 3 6 30.41 1030 10 16 0.00 0.00
11:35 pm 23:35 Mostly Cloudy 27 -3 15 -9.7 60 60 SW 5 7 30.40 1029 10 16 0.00 0.00
11:55 pm 23:55 Partly Cloudy 26 -3.4 15 -9.7 62 62 SW 6 9 30.40 1030 10 16 0.00 0.00

Powered by AerisWeather